Regional Weather Roundup
Issued by NWS

Home | Current Version | Previous Version | Graphics & Text | Print | Product List | Glossary On
Versions: 1 2 3 4 5 6 7 8 9 10 11 12 13 14 15 16 17 18 19 20 21 22 23 24 25 26 27 28 29 30 31 32 33 34 35 36 37 38 39 40 41 42 43 44 45 46 47 48
000
ASUS45 KBOU 271007
RWRCO

WEATHER ROUNDUP FOR COLORADO
NATIONAL WEATHER SERVICE DENVER/BOULDER CO
300 AM MST TUE JAN 27 2015

NOTE: "FAIR" INDICATES FEW OR NO CLOUDS BELOW 12000 FEET WITH NO
SIGNIFICANT WEATHER AND/OR OBSTRUCTIONS TO VISIBILITY.

COZ001>005-013-030-031-271100-
...NORTHWEST COLORADO...

CITY           SKY/WX    TMP DP  RH WIND       PRES   REMARKS
CRAIG          CLEAR     13  11  92 W3        30.35S
HAYDEN         PTCLDY    28  19  69 SE13      30.34S WCI  18
MEEKER         PTCLDY    18  12  77 CALM      30.35S
MOUNT WERNER   NOT AVBL
STEAMBOAT SPGS PTCLDY    23  21  89 CALM      30.36S
WALDEN         PTCLDY    18  12  79 SE6       30.38S WCI   9
$$

COZ006>008-011-271100-
...WEST CENTRAL VALLEYS...

CITY           SKY/WX    TMP DP  RH WIND       PRES   REMARKS
GRAND JUNCTION PTCLDY    32  26  78 SE8       30.30S WCI  25
MONTROSE       PTCLDY    29  22  75 S7        30.35F WCI  22
EAGLE          PTCLDY    21  19  93 CALM      30.45S
RIFLE          PTCLDY    28  22  78 CALM      30.36S
DELTA          PTCLDY    29  23  77 E6        30.34F WCI  23
NUCLA          PTCLDY    32  25  74 E9        30.35F WCI  24
$$

COZ017>023-064>068-271100-
...SOUTHWEST COLORADO...

CITY           SKY/WX    TMP DP  RH WIND       PRES   REMARKS
DURANGO        PTCLDY    28  24  85 E6        30.37S WCI  22
CORTEZ         CLEAR     28  22  78 E8        30.33S WCI  20
PAGOSA SPRINGS PTCLDY    28  22  77 CALM      30.41S
TELLURIDE      PTCLDY    36  19  50 E3        30.43S
WOLF CREEK PAS NOT AVBL
$$

COZ009-010-012-014-032>034-037-058>063-271100-
...CENTRAL COLORADO...

CITY           SKY/WX    TMP DP  RH WIND       PRES   REMARKS
ASPEN          CLEAR     24  15  68 SE6       30.38F WCI  17
BUENA VISTA    CLEAR     29  19  66 NW6       30.40F WCI  22
COPPER MTN     PTCLDY    37   7  28 S15       30.54S
BERTHOUD PASS  FAIR      32  27  80 NW12      30.56F WCI  23
COTTONWOOD PAS CLEAR     43   9  24 W3        30.45S
GUNNISON       PTCLDY     1  -8  66 CALM      30.50S
KREMMLING      FOG       10   7  85 CALM      30.47S VSB 1/4
LEADVILLE      PTCLDY    19  10  68 NE7       30.44F WCI  10
MONARCH PASS   PTCLDY    32  12  43 SW20      30.64S WCI  20
SALIDA         CLEAR     34  20  57 NW12      30.46F WCI  25
SUNLIGHT       PTCLDY    36  18  48 CALM        N/A
WILKERSON PASS PTCLDY    32  12  43 SW10G21   30.50F WCI  24
$$

COZ069>075-271100-
...SAN LUIS VALLEY/SANGRE DE CRISTO MOUNTAINS...

CITY           SKY/WX    TMP DP  RH WIND       PRES   REMARKS
ALAMOSA        PTCLDY    12   9  87 W3        30.42F
LA VETA PASS   NOT AVBL
SAGUACHE       PTCLDY    21  16  79 NW10      30.44S WCI  10
$$

COZ035-036-038>040-271100-
...NORTHERN COLORADO FRONT RANGE...

CITY           SKY/WX    TMP DP  RH WIND       PRES   REMARKS
DENVER INTL AP CLEAR     49  23  36 SW20      30.17F
DMNS CITY PARK   N/A     49  20  30 S12       30.18F
AURORA         CLEAR     43  24  46 S15       30.20F
FRONT RANGE AP NOT AVBL
ERIE MUNI ARPT CLEAR     35  24  66 S7        30.16F WCI  29
BOULDER MUN AP CLEAR     59  18  20 SW3       30.16F
CENTENNIAL     CLEAR     51  21  30 SW14      30.21F
BROOMFIELD     CLEAR     50  19  29 SW3       30.18F
FORT COLLINS   CLEAR     41  19  42 SE3       30.16F
LONGMONT       CLEAR     33  24  69 CALM      30.17F
$$

COZ041-046-047-076>085-087-088-271100-
...PIKES PEAK/PALMER DIVIDE AND SOUTHERN FOOTHILLS...

CITY           SKY/WX    TMP DP  RH WIND       PRES   REMARKS
COLO. SPRINGS  PTCLDY    38  24  57 N9        30.26F
A. F. ACADEMY  PTCLDY    31  23  73 N12       30.27F WCI  21
ELLICOTT       PTCLDY   N/A N/A N/A CALM      30.24F
FALCON         PTCLDY    38  20  48 W7        30.29F
FORT CARSON    PTCLDY    39  25  56 NW13      30.23F
LIMON          CLEAR     29  23  78 N8        30.20F WCI  21
MONUMENT HILL  CLEAR     41  21  45 SW12      30.28S
TRINIDAD       PTCLDY    41  23  48 SW20      30.27S
$$

COZ042>045-048>051-090-091-271100-
...NORTHEAST COLORADO...

CITY           SKY/WX    TMP DP  RH WIND       PRES   REMARKS
GREELEY ARPT   CLEAR     28  19  69 CALM      30.14F
AKRON          PTCLDY    41  29  62 W14       30.14S
BURLINGTON     CLEAR     41  29  62 W12       30.14F
WRAY           PTCLDY    37  30  78 W10       30.11S
STERLING       PTCLDY    34  32  93 SW10      30.12F WCI  26
HOLYOKE        PTCLDY    37  32  81 W9        30.09F
FORT MORGAN    PTCLDY    34  27  76 W9        30.14F WCI  26
$$

COZ086-089-092>099-271100-
...SOUTHEAST COLORADO...

CITY           SKY/WX    TMP DP  RH WIND       PRES   REMARKS
PUEBLO         CLEAR     31  26  82 W7        30.21F WCI  24
LA JUNTA       CLEAR     40  29  64 SW9       30.19F
LAMAR          PTCLDY    36  30  79 W7        30.16S
SPRINGFIELD      N/A     38  27  64 CALM      30.18F
$$


USA.gov is the U.S. government's official web portal to all federal, state and local government web resources and services.